Regional Weather Roundup
Issued by NWS Nashville, TN

Home | Current Version | Previous Version | Text Only | Print | Product List | Glossary On
Versions: 1 2 3 4 5 6 7 8 9 10 11 12 13 14 15 16 17 18 19 20 21 22 23 24 25 26 27 28 29 30 31 32 33 34 35 36 37 38 39 40 41 42 43 44 45 46 47 48 49 50
000
ASUS44 KOHX 280810
RWROHX
MIDDLE TENNESSEE HOURLY WEATHER ROUNDUP
NATIONAL WEATHER SERVICE NASHVILLE TN
300 AM CDT FRI APR 28 2017

NOTE: "FAIR" INDICATES FEW OR NO CLOUDS BELOW 12,000 FEET WITH
NO SIGNIFICANT WEATHER AND/OR OBSTRUCTIONS TO VISIBILITY.

* THESE REPORTS ARE NOT UNDER NWS QUALITY CONTROL AND MAY NOT
  REPORT WEATHER SUCH AS PRECIPITATION AND FOG.


TNZ005>011-023>034-057-059-062>066-078-080-280900
...NORTHERN MIDDLE TENNESSEE...

CITY           SKY/WX    TMP DP  RH WIND       PRES   REMARKS
CLARKSVILLE    CLOUDY    53  50  89 SE3       29.89R
CROSSVILLE     CLEAR     49  47  93 CALM      29.94S
GALLATIN       PTCLDY    52  50  93 CALM      29.93S
DICKSON        CLEAR     51  50  97 CALM      29.88S
LEBANON        CLEAR     49  49 100 CALM      29.89S
NASHVILLE      PTCLDY    53  51  93 CALM      29.90F
PORTLAND       PTCLDY    54  50  87 E3        29.90F
SMYRNA         CLEAR     51  50  96 CALM      29.91S
SPARTA         CLEAR     50  50 100 NE5       29.90S
SPRINGFIELD    CLEAR     54  52  94 CALM      29.89R
WEST NASHVILLE CLEAR     52  52 100 CALM      29.89F
$$
TNZ056-058-060-061-075>077-079-093>097-280900
...SOUTHERN MIDDLE TENNESSEE...

CITY           SKY/WX    TMP DP  RH WIND       PRES   REMARKS
COLUMBIA       CLEAR    N/A N/A N/A CALM      29.87F
FAYETTEVILLE     N/A     55  54  94 CALM      29.87F
MCMINNVILLE    CLEAR     54  54 100 CALM      29.91R
MURFREESBORO   CLEAR     53  51  93 CALM      29.90S
SHELBYVILLE    CLEAR     54  54 100 CALM      29.91R
TULLAHOMA      CLEAR     54  52  94 CALM      29.90S
WINCHESTER     CLEAR     54  52  94 CALM      29.89F
$$


...KEY TO REMARKS...
VSB - VISIBILITY IN MILES
WCI - WIND CHILL INDEX
HX  - HEAT INDEX




USA.gov is the U.S. government's official web portal to all federal, state and local government web resources and services.